TimeCDT,TemperatureF,Dew PointF,Humidity,Sea Level PressureIn,VisibilityMPH,Wind Direction,Wind SpeedMPH,Gust SpeedMPH,PrecipitationIn,Events,Conditions,WindDirDegrees,DateUTC
12:52 AM,63.0,63.0,100,29.90,0.8,SSE,13.8,19.6,N/A,,Overcast,160,2013-09-18 05:52:00
1:37 AM,62.6,62.6,100,29.89,1.0,South,13.8,-,N/A,,Overcast,170,2013-09-18 06:37:00
1:47 AM,64.4,64.4,100,29.89,1.2,South,11.5,20.7,N/A,,Overcast,170,2013-09-18 06:47:00
1:52 AM,64.0,64.0,100,29.88,1.5,South,11.5,20.7,N/A,,Overcast,170,2013-09-18 06:52:00
2:07 AM,64.4,64.4,100,29.89,2.0,South,16.1,-,N/A,,Overcast,170,2013-09-18 07:07:00
2:52 AM,64.9,64.9,100,29.87,2.0,South,13.8,21.9,N/A,,Overcast,180,2013-09-18 07:52:00
3:52 AM,66.0,66.0,100,29.83,2.5,South,13.8,20.7,0.01,,Overcast,170,2013-09-18 08:52:00
4:29 AM,66.2,66.2,100,29.83,3.0,South,15.0,20.7,N/A,,Overcast,170,2013-09-18 09:29:00
4:52 AM,66.0,66.0,100,29.83,3.0,South,15.0,-,N/A,,Overcast,170,2013-09-18 09:52:00
5:52 AM,66.0,66.0,100,29.83,3.0,South,13.8,21.9,N/A,,Overcast,170,2013-09-18 10:52:00
6:15 AM,66.2,66.2,100,29.83,3.0,South,16.1,-,N/A,,Overcast,170,2013-09-18 11:15:00
6:52 AM,66.0,66.0,100,29.81,4.0,South,13.8,-,N/A,,Overcast,180,2013-09-18 11:52:00
7:40 AM,66.2,66.2,100,29.83,2.5,SSE,13.8,-,N/A,,Overcast,160,2013-09-18 12:40:00
7:52 AM,66.0,66.0,100,29.83,2.5,SSE,11.5,-,N/A,,Overcast,160,2013-09-18 12:52:00
8:02 AM,66.2,66.2,100,29.83,3.0,SSE,15.0,-,N/A,,Overcast,160,2013-09-18 13:02:00
8:52 AM,66.0,66.0,100,29.82,4.0,South,11.5,-,N/A,,Overcast,170,2013-09-18 13:52:00
9:52 AM,68.0,66.9,96,29.82,4.0,South,11.5,-,N/A,,Overcast,180,2013-09-18 14:52:00
10:47 AM,69.8,68.0,94,29.81,4.0,South,10.4,-,N/A,,Overcast,180,2013-09-18 15:47:00
10:52 AM,70.0,68.0,93,29.80,4.0,South,11.5,-,N/A,,Overcast,170,2013-09-18 15:52:00
11:52 AM,73.0,68.0,84,29.78,5.0,South,13.8,-,N/A,,Haze,180,2013-09-18 16:52:00
12:17 PM,75.2,69.8,83,29.78,6.0,South,13.8,-,N/A,,Haze,190,2013-09-18 17:17:00
12:52 PM,80.1,70.0,71,29.74,9.0,South,15.0,23.0,N/A,,Mostly Cloudy,180,2013-09-18 17:52:00
1:00 PM,80.6,69.8,70,29.76,9.0,South,16.1,23.0,N/A,,Scattered Clouds,170,2013-09-18 18:00:00
1:52 PM,84.9,71.1,63,29.72,10.0,South,12.7,21.9,N/A,,Clear,180,2013-09-18 18:52:00
2:52 PM,87.1,69.1,55,29.70,10.0,South,15.0,24.2,N/A,,Clear,170,2013-09-18 19:52:00
3:52 PM,89.1,69.1,52,29.68,10.0,SSE,16.1,24.2,N/A,,Clear,160,2013-09-18 20:52:00
4:52 PM,89.1,69.1,52,29.67,10.0,SSW,13.8,-,N/A,,Clear,200,2013-09-18 21:52:00
5:52 PM,88.0,68.0,51,29.68,10.0,SSW,17.3,24.2,N/A,,Scattered Clouds,200,2013-09-18 22:52:00
6:52 PM,82.9,69.1,63,29.68,10.0,South,6.9,-,N/A,,Clear,190,2013-09-18 23:52:00
7:52 PM,78.1,69.1,74,29.69,10.0,South,8.1,-,N/A,,Clear,170,2013-09-19 00:52:00
8:52 PM,77.0,68.0,74,29.69,10.0,South,9.2,-,N/A,,Clear,170,2013-09-19 01:52:00
9:52 PM,75.9,68.0,76,29.70,10.0,South,10.4,-,N/A,,Clear,170,2013-09-19 02:52:00
10:52 PM,75.9,68.0,76,29.68,10.0,South,13.8,-,N/A,,Scattered Clouds,170,2013-09-19 03:52:00
11:52 PM,75.0,69.1,82,29.69,10.0,South,12.7,-,N/A,,Clear,170,2013-09-19 04:52:00